Regional Weather Roundup
Issued by NWS

Home | Current Version | Previous Version | Graphics & Text | Print | Product List | Glossary On
Versions: 1 2 3 4 5 6 7 8 9 10 11 12 13 14 15 16 17 18 19 20 21 22 23 24 25 26 27 28 29 30 31 32 33 34 35 36 37 38 39 40 41 42 43 44 45 46 47 48 49 50
000
ASUS43 KLOT 090908
RWRIL

ILLINOIS REGIONAL WEATHER ROUNDUP
NATIONAL WEATHER SERVICE CHICAGO/ROMEOVILLE IL
300 AM CST FRI DEC 09 2016

NOTE: "FAIR" INDICATES FEW OR NO CLOUDS BELOW 12,000 FEET WITH NO
SIGNIFICANT WEATHER AND/OR OBSTRUCTIONS TO VISIBILITY.

* THESE STATIONS ARE NOT UNDER NWS QUALITY CONTROL. THEY ALSO MAY NOT
  REPORT WEATHER SUCH AS PRECIPITATION OR FOG.

ILZ001-002-007-009-015-016-024-091000-
NORTHWEST ILLINOIS

CITY           SKY/WX    TMP DP  RH WIND       PRES   REMARKS
MOLINE         CLOUDY    21  11  65 NW10      30.55R WCI  10
STERLING*      CLOUDY    21  16  81 W12       30.51R WCI   9
SAVANNA*       CLOUDY    20  14  75 NW10      30.52R WCI   9
$$

ILZ003-004-008-010-011-017-018-091000-
NORTH CENTRAL ILLINOIS

CITY           SKY/WX    TMP DP  RH WIND       PRES   REMARKS
ROCKFORD       FLURRIES  22  16  78 NW9       30.48S WCI  12
FREEPORT*      CLOUDY    21  15  80 W12       30.50R WCI   9
ROCHELLE*      CLOUDY    21  16  82 W10       30.49R WCI  10
DE KALB*       CLOUDY    20  16  84 W13       30.46S WCI   8
$$

ILZ005-006-012>014-019>023-091000-
NORTHEAST ILLINOIS

CITY           SKY/WX    TMP DP  RH WIND       PRES   REMARKS
CHICAGO-OHARE  PTCLDY    20  15  81 W10       30.44R WCI   9
CHICAGO-MIDWAY PTCLDY    21  14  74 W9        30.45R WCI  11
AURORA         MOCLDY    22  16  78 W15       30.47R WCI   9
LANSING*       CLOUDY    22  18  86 W7        30.46R WCI  13
JOLIET*        CLOUDY    23  18  80 W8        30.48S WCI  14
WAUKEGAN       CLEAR     21  17  84 W7        30.41R WCI  12
DUPAGE AIRPORT CLOUDY    20  15  81 W12       30.44R WCI   8
KANKAKEE*      MIX PCPN  23  17  79 W9        30.49R WCI  13
WHEELING       PTCLDY    21  15  78 W7        30.45R WCI  12
MORRIS*        FLURRIES  22  17  80 W13       30.48S WCI  10
ROMEOVILLE*    MIX PCPN  21  19  91 W12       30.47R WCI   9
NORTHERLY ISL    N/A     23  18  81 W14         N/A  WCI  11
$$

LMZ740>746-091000-
SOUTHERN LAKE MICHIGAN

STATION/POSITION SKY/WX   TEMP    WIND        PRES    VSBY  WAVE
                          AIR SEA DIR/SP/G                  HT/PER
                          (F)     (DEG/KT/KT) (MB)    (MI)  (FT/S)
HARRISON CRIB              24     280/ 17/ 19   N/A
BURNHAM HARBOR             23     270/ 11/ 15   N/A
CALUMET HARBOR             22     260/  5/ 10 1030.4R
BURNS HARBOR               26     280/ 17/ 23 1030.5R
$$

ILZ025>027-034>036-040-047-049-050-058-095>099-091000-
WEST-CENTRAL ILLINOIS

CITY           SKY/WX    TMP DP  RH WIND       PRES   REMARKS
QUINCY         CLEAR     16  11  80 W8        30.58R WCI   5
GALESBURG*     CLOUDY    21  15  78 NW9       30.54S WCI  10
MACOMB*        CLOUDY    22  15  73 NW9       30.58R WCI  12
JACKSONVILLE*  CLOUDY    18  13  79 W6        30.58S WCI  10
PITTSFIELD*    CLEAR     17  12  80 W5        30.59S WCI  10
$$

ILZ028>032-037-038-041>044-048-051>054-059>061-091000-
CENTRAL ILLINOIS

CITY           SKY/WX    TMP DP  RH WIND       PRES   REMARKS
PONTIAC        CLOUDY    23  17  78 W13       30.51S WCI  11
BLOOMINGTON    CLOUDY    21  14  74 W9        30.51R WCI  11
DECATUR        CLOUDY    22  15  75 W8        30.54R WCI  12
PEORIA         CLOUDY    22  11  62 NW9       30.54S WCI  12
LACON*         CLOUDY    22  14  72 W7        30.52S WCI  13
LINCOLN*       FLURRIES  24  18  78 NW3       30.55R
SPRINGFIELD    CLOUDY    23  15  71 W10       30.56R WCI  12
TAYLORVILLE    CLOUDY    21  14  74 CALM      30.57R
$$

ILZ033-039-045-046-055>057-062-063-091000-
EAST-CENTRAL ILLINOIS

CITY           SKY/WX    TMP DP  RH WIND       PRES   REMARKS
CHAMPAIGN      FLURRIES  22  14  71 NW14      30.52S WCI   9
RANTOUL*       CLOUDY    24  18  76 W12       30.51R WCI  13
MATTOON        CLOUDY    21  12  68 NW13      30.54R WCI   9
PARIS*         FLURRIES  21  17  83 W10       30.55R WCI  10
$$

ILZ079-100>102-091000-
SOUTHWEST ILLINOIS

CITY           SKY/WX    TMP DP  RH WIND       PRES   REMARKS
ALTON          CLEAR     19  13  78 W7        30.60S WCI   9
BELLEVILLE     CLEAR     18  12  79 W6        30.59S WCI  10
CAHOKIA*       CLEAR     21  12  68 NW8       30.61S WCI  11
SPARTA*        PTCLDY    19  13  77 CALM      30.62R
$$

ILZ064>066-069>071-074>076-080>082-084>086-088>090-092>094-091000-
SOUTH-CENTRAL ILLINOIS

CITY           SKY/WX    TMP DP  RH WIND       PRES   REMARKS
CARBONDALE     CLEAR     20  14  77 W3        30.61R
CAIRO*         CLEAR     20  13  73 NW3       30.62S
EFFINGHAM*     CLOUDY    24  16  72 W10       30.58S WCI  13
MARION         CLOUDY    25  16  68 W3        30.60S
CENTRALIA*     PTCLDY    23  15  71 NW7       30.58S WCI  14
SALEM*         MOCLDY    24  13  64 NW5       30.58S WCI  18
METROPOLIS*    PTCLDY    21  14  73 CALM      30.61S
$$

ILZ067-068-072-073-078-083-087-091-091000-
SOUTHEAST ILLINOIS

CITY           SKY/WX    TMP DP  RH WIND       PRES   REMARKS
LAWRENCEVILLE  CLOUDY    22  13  68 NW10      30.58R WCI  11
FLORA*         CLOUDY    24  15  67 NW10      30.59S WCI  14
FAIRFIELD*     CLOUDY    23  14  69 NW3       30.58S
HARRISBURG*    CLEAR     23  14  67 NW6       30.60S WCI  16
ROBINSON*      CLOUDY    21  14  73 NW5       30.58S WCI  15
CARMI*         PTCLDY    22  15  73 NW8       30.58S WCI  13
$$

ABBREVIATIONS USED IN REMARKS
   TC - TEMPERATURE IN CELSIUS
  WCI - WIND CHILL INDEX
   HX - HEAT INDEX
  VSB - VISIBILITY
$$





USA.gov is the U.S. government's official web portal to all federal, state and local government web resources and services.